Volver al catálogo

COSMOS 2087

ActivoMilitarHEO
NORAD 20707·PAYLOAD·🇷🇺 Russia

Lanzado Jul 25, 1990 desde Plesetsk Cosmodrome

Loading…

Próximos Pases (próximas 24 horas)

TLE

ActualizadoSource: Space-Track

Época: Sep 13, 2026, 04:23 UTC

1 20707U 90064A   26256.18326792 -.00000789  00000-0  00000-0 0  9999
2 20707  67.7578 179.6866 6315740  22.8930 355.8704  2.00388651264592

Sigue COSMOS 2087 en tiempo real con AllMySat

Download on the App Store